Wind_Speed
19 19 18 19 20 21 19 18 22 23 24 26 27 28 32 37 41 42 43 43 44 44 44 44 47 47 48 49 52 55 55 56 54 51 50 50 49 49 46 45 45 46 47
20 20 21 22 21 22 22 25 26 29 32 31 32 33 37 38 41 46 48 47 46 43 44 47 48 49 50 51 55 56 56 57 56 52 49 48 48 46 46 49 46 41 38
22 25 27 22 22 22 23 27 30 33 32 34 35 39 41 45 50 44 50 46 46 45 47 49 49 52 52 53 56 56 55 55 52 51 49 47 46 49 48 47 37 30 24
24 26 25 27 26 24 23 27 30 32 34 36 39 42 47 51 57 59 46 41 45 46 48 50 51 52 53 55 56 56 52 50 48 49 50 50 49 47 46 39 30 31 24
25 26 25 27 28 24 25 28 31 34 39 42 45 46 53 64 59 49 46 45 48 49 49 50 51 52 53 55 55 53 51 47 51 50 50 48 47 40 34 31 26 19 24
29 28 28 29 29 28 28 32 36 39 42 47 50 52 54 59 66 46 46 50 50 49 51 51 50 50 53 54 52 51 50 48 50 51 50 50 39 35 27 19 17 15 17
33 31 32 33 34 33 33 37 40 44 47 51 54 59 60 66 68 71 45 53 52 48 49 50 46 51 52 52 48 47 45 47 49 50 52 49 37 30 17 19 12 19 17
35 34 34 35 35 35 38 40 43 47 52 55 58 60 64 67 70 49 40 45 44 45 44 49 46 48 49 48 46 44 45 44 43 47 51 43 26 19 20 18 16 15 20
36 35 32 35 36 38 41 43 48 53 55 57 62 58 66 68 73 46 39 40 43 43 45 47 44 45 45 44 41 41 41 40 38 43 45 41 26 19 17 19 18 13 11
34 31 33 37 40 42 46 49 52 57 63 48 58 64 69 74 78 40 34 32 39 44 47 46 45 42 42 40 37 39 39 32 33 38 40 43 21 12 10 16 13 11 12
35 38 41 43 44 44 46 52 57 66 50 56 60 66 70 55 37 32 33 37 39 44 46 45 39 38 37 37 37 37 34 26 32 34 31 45 20 12 10 11 13 10 13
37 41 43 43 44 44 50 54 57 49 58 57 56 55 40 57 45 41 38 37 38 42 42 39 37 36 33 33 34 34 24 28 26 35 33 39 29 17 10 12 12 13 7
42 42 47 47 50 48 54 57 59 54 60 61 62 56 58 55 42 37 38 39 40 38 36 34 34 33 30 32 31 30 21 24 28 30 28 28 33 23 9 9 12 10 10
39 43 47 48 42 49 54 58 58 59 65 69 72 67 43 55 34 40 40 41 38 36 34 33 33 31 28 31 30 25 17 21 26 28 27 27 28 34 28 11 4 3 11
39 39 43 48 49 53 55 58 61 59 69 66 72 37 35 38 45 48 41 39 35 33 31 30 31 29 28 28 26 22 13 20 23 28 21 24 22 28 30 25 10 8 11
43 46 48 49 55 58 59 65 68 60 48 35 33 33 35 36 38 39 38 37 35 32 29 30 31 29 28 22 23 19 14 15 20 22 26 21 22 20 22 28 30 15 3
48 50 50 52 52 52 39 52 39 33 34 33 34 35 35 33 35 37 34 33 30 29 28 29 28 27 21 21 21 17 15 11 16 16 20 20 17 19 20 19 23 28 29
51 51 52 48 51 42 43 38 36 36 36 37 38 36 34 34 34 32 30 29 28 27 28 27 25 23 22 23 20 17 14 12 13 18 19 23 21 19 16 18 17 17 18
51 50 49 47 47 39 41 39 35 35 36 40 37 35 32 30 28 28 27 27 26 24 24 27 24 26 24 22 20 18 14 13 15 15 17 18 19 18 16 13 12 13 12
40 44 41 41 39 39 41 39 36 37 37 37 33 32 29 27 27 26 24 24 25 24 26 25 19 15 14 17 17 15 14 15 16 16 15 15 17 17 16 16 15 12 10
36 35 35 39 40 40 40 38 39 40 38 33 32 30 27 26 26 23 23 23 23 22 22 17 14 17 18 15 14 14 16 17 16 16 16 16 16 16 16 15 15 14 13
35 36 38 39 40 38 40 41 37 37 35 28 28 26 26 25 24 23 22 23 22 21 22 19 18 19 17 15 15 17 19 19 19 18 18 17 16 15 15 15 15 15 14
39 37 38 40 39 39 41 43 34 30 29 24 26 24 25 25 24 23 22 23 21 18 17 16 18 18 16 17 18 20 20 20 19 19 19 18 18 18 17 17 16 16 15
38 39 38 37 38 40 42 37 29 29 27 25 26 27 25 24 23 22 17 17 16 16 15 16 17 17 19 19 19 20 20 21 20 20 19 17 16 15 15 15 15 15 15
40 36 37 38 37 34 34 29 28 26 25 25 25 24 21 22 18 13 14 16 17 16 17 17 18 20 20 20 20 20 19 19 18 18 16 15 14 13 13 12 12 12 13
37 38 39 39 29 29 30 29 26 23 24 22 20 19 18 16 15 16 16 16 17 17 18 19 20 20 20 20 20 21 20 19 17 15 14 13 13 12 12 13 13 14 15
Wind_Direction
307 314 314 310 308 307 313 310 312 314 316 327 329 336 314 329 326 326 324 320 322 319 318 318 318 317 315 314 316 316 316 314 312 310 310 308 306 305 299 294 290 279 274
298 301 303 307 301 302 306 312 312 311 316 324 324 322 322 328 326 323 323 317 318 319 318 316 318 317 315 318 317 320 320 315 314 310 309 310 310 305 307 293 296 285 272
294 302 305 299 301 299 299 305 311 313 318 323 325 325 325 324 320 317 315 319 317 318 320 318 319 317 319 322 321 321 321 321 319 318 316 315 311 307 306 300 295 292 283
290 295 298 304 299 289 295 305 305 315 320 323 325 321 320 319 321 323 305 316 315 317 317 317 317 319 321 323 322 322 326 323 320 318 315 316 316 312 310 303 299 287 283
292 297 300 298 303 297 299 306 313 317 320 320 316 315 319 321 319 316 320 324 316 316 316 315 318 320 324 323 323 324 325 324 320 321 322 327 322 319 309 300 311 283 279
290 293 293 302 297 297 306 308 310 313 314 313 310 318 313 317 320 312 311 313 313 313 314 315 319 320 323 324 323 326 325 326 324 326 330 332 333 327 309 323 303 325 302
285 286 287 293 297 301 305 305 307 308 307 308 311 311 314 319 319 321 318 318 314 315 313 314 321 323 324 323 325 325 325 329 330 330 330 331 341 325 336 326 307 342 330
277 280 285 289 291 294 296 299 301 301 302 305 306 309 312 310 312 317 315 319 317 313 314 320 323 323 322 322 325 324 325 333 329 330 334 334 343 334 353 354 340 334 336
273 274 278 277 280 286 291 295 298 299 299 296 301 310 308 310 310 306 309 313 315 312 314 324 320 322 322 323 326 324 327 333 332 338 338 337 343 355 338 338 340 331 341
269 275 275 281 285 286 289 292 295 300 300 306 309 315 314 307 303 287 288 317 315 310 318 318 320 321 322 326 327 324 332 332 341 335 330 352 333 359 345 335 335 336 335
270 275 279 281 282 280 284 288 291 298 307 312 307 309 315 317 326 318 325 320 312 309 318 318 320 320 324 328 326 329 333 334 336 340 335 354 345 349 324 319 344 337 335
270 273 275 275 276 295 292 295 295 299 306 308 311 315 315 318 313 318 319 313 310 314 318 318 320 322 328 328 327 332 336 345 344 340 347 352 4 345 319 323 331 347 357
267 273 282 280 287 287 298 298 300 304 307 305 302 303 302 304 301 314 315 316 317 316 317 318 318 322 328 326 331 332 338 343 341 349 353 356 5 16 355 6 10 29 14
268 274 285 286 287 302 301 300 303 306 304 304 302 308 302 304 282 320 318 314 317 317 319 319 318 320 321 322 328 327 331 342 341 355 1 8 13 25 21 353 335 290 348
268 273 280 287 291 291 292 295 296 300 298 298 299 297 302 308 303 312 312 312 313 311 314 315 313 316 318 313 320 323 315 336 344 355 7 17 13 17 20 29 28 313 316
270 276 281 290 288 290 293 297 291 293 313 298 293 299 302 300 300 302 305 308 310 313 314 313 313 315 317 308 315 325 308 333 345 354 5 13 10 13 18 19 34 51 42
278 282 283 287 290 289 296 306 308 293 307 306 302 302 302 304 304 303 305 306 309 311 311 311 313 316 313 306 312 325 304 315 331 342 347 347 13 7 9 17 18 20 31
282 285 289 284 289 293 292 305 305 301 301 302 308 308 309 306 303 302 303 305 308 309 310 312 313 310 304 306 309 316 320 297 313 325 336 343 351 359 9 2 11 14 13
282 282 286 283 287 293 299 297 298 300 304 305 307 305 305 303 302 302 304 304 307 308 311 312 313 312 294 300 308 310 314 312 316 321 324 332 339 344 350 352 356 1 7
282 283 282 281 285 292 289 288 295 301 306 307 308 305 304 304 301 302 303 304 308 304 308 305 303 313 318 314 318 319 326 323 323 323 322 327 327 332 336 340 344 349 349
277 279 282 285 287 291 290 294 301 304 307 308 306 305 304 301 300 300 299 306 309 310 311 298 302 304 309 310 309 327 333 329 328 327 324 324 323 323 324 326 328 331 334
272 275 280 284 287 291 289 293 303 304 305 307 300 301 297 299 294 297 299 303 312 305 299 288 297 304 307 306 310 321 322 320 318 316 314 315 315 316 317 319 321 321 321
278 283 287 289 289 291 292 300 305 303 303 300 296 298 300 298 297 304 300 296 302 297 303 303 301 303 302 308 315 318 319 321 321 318 315 312 309 309 312 313 315 314 314
282 286 286 288 292 294 299 300 298 300 301 303 301 302 301 296 299 300 293 299 304 294 300 308 306 303 303 308 313 316 316 316 314 313 312 312 313 313 313 314 315 315 315
283 279 286 293 298 299 296 295 295 298 300 299 299 296 296 299 300 296 299 298 297 296 300 299 299 303 308 312 314 315 316 317 317 316 315 315 315 314 317 319 317 315 316
279 286 293 296 296 291 290 292 294 292 292 290 288 292 294 296 294 298 302 301 301 300 301 301 303 306 309 312 313 312 311 312 312 313 313 314 315 314 313 312 313 313 313
Height
5927 5927 5926 5925 5924 5923 5922 5921 5917 5915 5912 5910 5907 5904 5898 5895 5889 5884 5880 5872 5868 5862 5855 5848 5841 5833 5826 5819 5811 5802 5794 5785 5778 5771 5763 5755 5749 5741 5736 5731 5726 5722 5720
5923 5923 5923 5922 5921 5919 5917 5915 5913 5910 5908 5906 5903 5898 5895 5890 5885 5879 5873 5867 5863 5855 5847 5839 5832 5825 5816 5809 5800 5792 5783 5774 5764 5757 5750 5744 5736 5727 5721 5713 5709 5704 5703
5918 5918 5917 5917 5916 5914 5913 5911 5908 5905 5903 5900 5897 5892 5888 5883 5877 5873 5865 5859 5854 5844 5838 5830 5822 5816 5807 5799 5791 5781 5772 5763 5753 5744 5738 5731 5722 5713 5708 5700 5694 5690 5688
5915 5914 5913 5911 5910 5910 5909 5907 5905 5902 5898 5895 5892 5887 5879 5874 5869 5862 5852 5850 5843 5835 5828 5821 5814 5807 5799 5789 5780 5770 5762 5754 5746 5737 5728 5720 5710 5701 5691 5686 5686 5678 5679
5910 5910 5909 5908 5906 5905 5904 5901 5899 5896 5892 5889 5885 5881 5875 5871 5861 5856 5849 5842 5836 5827 5819 5812 5806 5797 5789 5780 5771 5762 5753 5744 5738 5728 5718 5710 5699 5690 5682 5679 5675 5673 5671
5903 5903 5903 5902 5901 5900 5898 5895 5893 5890 5886 5882 5878 5875 5868 5861 5854 5847 5840 5832 5825 5818 5812 5804 5798 5788 5781 5773 5762 5753 5744 5736 5729 5718 5708 5699 5690 5681 5677 5672 5669 5669 5667
5896 5897 5896 5896 5895 5893 5891 5889 5886 5882 5878 5873 5868 5863 5857 5851 5841 5833 5830 5825 5816 5809 5803 5798 5791 5782 5775 5766 5756 5746 5738 5729 5721 5711 5701 5690 5683 5677 5673 5670 5667 5664 5661
5890 5890 5890 5889 5888 5886 5884 5881 5878 5875 5869 5865 5858 5852 5846 5840 5832 5824 5820 5813 5806 5801 5796 5790 5784 5776 5769 5760 5751 5742 5734 5725 5718 5709 5697 5686 5680 5674 5671 5667 5664 5662 5659
5883 5882 5881 5880 5878 5877 5875 5872 5869 5865 5860 5855 5850 5842 5836 5830 5823 5815 5810 5805 5798 5793 5789 5783 5776 5768 5761 5754 5746 5739 5731 5722 5715 5705 5695 5685 5679 5673 5670 5668 5665 5662 5659
5874 5874 5873 5872 5871 5869 5867 5864 5861 5857 5852 5846 5841 5834 5827 5819 5810 5797 5794 5791 5789 5787 5780 5777 5770 5762 5755 5747 5741 5735 5728 5721 5715 5707 5697 5686 5678 5672 5670 5667 5665 5662 5659
5867 5867 5865 5864 5862 5859 5856 5855 5852 5848 5838 5838 5832 5825 5819 5809 5798 5794 5789 5786 5782 5779 5773 5769 5763 5755 5749 5742 5736 5731 5724 5719 5713 5706 5696 5686 5676 5673 5670 5667 5665 5663 5660
5859 5858 5856 5854 5848 5847 5847 5844 5839 5835 5834 5829 5822 5817 5810 5803 5799 5792 5785 5779 5774 5769 5766 5761 5755 5749 5743 5738 5732 5727 5722 5717 5712 5704 5696 5687 5678 5673 5670 5667 5665 5663 5660
5850 5850 5848 5843 5841 5839 5837 5834 5831 5826 5822 5815 5809 5806 5801 5795 5790 5785 5780 5772 5768 5762 5759 5753 5749 5744 5739 5734 5730 5725 5721 5717 5711 5704 5697 5689 5681 5673 5671 5668 5666 5664 5662
5842 5841 5839 5836 5832 5831 5828 5824 5820 5815 5811 5806 5800 5793 5789 5783 5778 5777 5772 5766 5760 5756 5751 5747 5744 5739 5735 5731 5727 5724 5720 5716 5711 5704 5697 5691 5684 5677 5673 5669 5667 5665 5664
5833 5831 5829 5828 5825 5821 5817 5812 5808 5804 5797 5794 5788 5784 5781 5776 5771 5765 5763 5759 5754 5750 5745 5742 5739 5735 5731 5728 5725 5721 5718 5714 5709 5703 5698 5693 5688 5683 5678 5671 5667 5665 5665
5823 5821 5820 5819 5816 5811 5806 5801 5794 5791 5784 5774 5779 5778 5775 5771 5766 5762 5757 5752 5747 5743 5739 5736 5733 5730 5726 5723 5722 5718 5715 5712 5708 5703 5699 5695 5691 5687 5682 5677 5671 5666 5665
5814 5812 5810 5807 5803 5800 5796 5790 5782 5781 5778 5777 5772 5769 5766 5761 5758 5754 5749 5744 5741 5737 5734 5731 5728 5725 5722 5720 5719 5715 5712 5710 5706 5703 5700 5696 5693 5690 5685 5681 5677 5672 5667
5803 5801 5798 5795 5793 5789 5787 5782 5779 5775 5773 5769 5765 5761 5755 5752 5750 5746 5741 5737 5734 5730 5728 5725 5723 5721 5719 5717 5715 5712 5709 5707 5705 5703 5699 5696 5693 5691 5688 5685 5682 5678 5675
5792 5790 5787 5786 5783 5781 5779 5773 5770 5767 5763 5760 5757 5752 5748 5745 5741 5738 5734 5730 5728 5726 5724 5721 5719 5717 5715 5714 5711 5709 5707 5704 5702 5701 5699 5696 5693 5691 5689 5687 5685 5682 5679
5781 5779 5777 5775 5773 5773 5770 5766 5762 5757 5756 5750 5747 5743 5740 5737 5734 5731 5727 5725 5724 5721 5719 5716 5716 5714 5712 5710 5708 5706 5703 5701 5699 5698 5697 5695 5693 5691 5688 5686 5684 5682 5681
5771 5769 5768 5767 5765 5763 5760 5755 5751 5748 5746 5742 5739 5735 5733 5731 5728 5725 5723 5722 5719 5716 5715 5713 5713 5711 5709 5707 5706 5703 5701 5699 5697 5695 5694 5692 5691 5689 5687 5685 5683 5680 5678
5762 5764 5761 5759 5758 5756 5751 5749 5745 5741 5738 5737 5731 5730 5726 5724 5722 5721 5719 5717 5715 5713 5712 5711 5709 5708 5706 5704 5702 5700 5697 5695 5693 5692 5691 5689 5687 5685 5684 5682 5680 5678 5677
5754 5751 5751 5748 5747 5744 5742 5738 5734 5732 5731 5730 5725 5722 5720 5719 5717 5715 5714 5712 5711 5710 5709 5707 5705 5704 5702 5701 5698 5696 5693 5691 5689 5687 5686 5684 5683 5681 5680 5679 5677 5676 5674
5745 5743 5741 5738 5738 5735 5732 5729 5726 5723 5721 5721 5718 5716 5714 5712 5712 5710 5709 5708 5707 5706 5705 5704 5702 5701 5699 5696 5694 5691 5689 5687 5685 5683 5682 5680 5679 5678 5676 5675 5674 5672 5671
5735 5734 5731 5729 5726 5725 5722 5721 5719 5717 5714 5713 5713 5711 5709 5708 5707 5706 5705 5704 5704 5702 5701 5700 5698 5696 5694 5691 5688 5686 5684 5682 5681 5679 5677 5676 5675 5674 5673 5672 5671 5669 5668
5725 5723 5721 5718 5718 5715 5713 5713 5712 5710 5709 5708 5707 5706 5705 5705 5703 5702 5701 5700 5699 5698 5697 5695 5693 5691 5688 5686 5684 5682 5680 5678 5676 5674 5673 5672 5671 5670 5670 5669 5668 5666 5665